FW1460 Weather Reports


Display with metric or nautical units.
time (UTC)temp
F
wind
direction
speed
MPH
gust
MPH
rain 1hr
in
rain 24hr
in
rain mn
in
humidity
%
barometer
mb
20260506210001 56 166 4.0 8.0 0.00 0.01 0.01 86 1007.9
20260506204600 57 192 3.0 9.0 0.00 0.01 0.01 85 1007.9
20260506203143 57 171 4.0 10.0 0.01 0.01 0.01 84 1007.9
20260506201559 58 198 4.0 9.0 0.01 0.01 0.01 84 1007.9
20260506200056 57 187 3.0 10.0 0.01 0.01 0.01 85 1008.3
20260506194555 57 154 3.0 15.0 0.00 0.00 0.00 84 1008.5
20260506193053 58 210 3.0 14.0 0.00 0.00 0.00 82 1008.6
20260506191554 59 225 4.0 15.0 0.00 0.00 0.00 79 1008.5
20260506190055 59 193 5.0 16.0 0.00 0.00 0.00 78 1008.7
20260506184558 60 221 6.0 16.0 0.00 0.00 0.00 78 1008.6
20260506183049 61 225 6.0 15.0 0.00 0.00 0.00 78 1008.8
20260506181548 61 200 5.0 14.0 0.00 0.00 0.00 78 1009.1
20260506180046 61 162 6.0 19.0 0.00 0.00 0.00 78 1009.2
20260506174546 61 159 5.0 15.0 0.00 0.00 0.00 76 1009.4
20260506173052 62 209 6.0 20.0 0.00 0.00 0.00 76 1009.9
20260506171542 63 192 6.0 14.0 0.00 0.00 0.00 75 1009.8
20260506170040 64 173 7.0 17.0 0.00 0.00 0.00 75 1009.8
20260506164545 62 213 7.0 19.0 0.00 0.00 0.00 77 1010.1
20260506163054 61 247 7.0 20.0 0.00 0.00 0.00 78 1010.3
20260506161537 62 205 8.0 15.0 0.00 0.00 0.00 76 1010.4
20260506160036 64 192 5.0 16.0 0.00 0.00 0.00 75 1010.5
20260506154537 64 173 6.0 22.0 0.00 0.00 0.00 75 1010.7
20260506153033 64 180 5.0 17.0 0.00 0.00 0.00 74 1010.9
20260506151538 63 205 8.0 19.0 0.00 0.00 0.00 76 1011.0
20260506150028 63 194 7.0 22.0 0.00 0.00 0.00 76 1011.1
20260506144528 62 179 7.0 16.0 0.00 0.00 0.00 76 1010.8
20260506143028 61 192 5.0 21.0 0.00 0.00 0.00 77 1010.9
20260506141527 62 198 5.0 16.0 0.00 0.00 0.00 77 1010.9
20260506140029 62 156 4.0 13.0 0.00 0.00 0.00 76 1010.7
20260506134523 62 194 6.0 19.0 0.00 0.00 0.00 76 1011.0
20260506133022 61 200 8.0 19.0 0.00 0.00 0.00 77 1011.3
20260506131521 61 202 7.0 22.0 0.00 0.00 0.00 78 1011.2
20260506130018 60 211 5.0 18.0 0.00 0.00 0.00 79 1011.0
20260506124517 60 220 5.0 18.0 0.00 0.00 0.00 79 1010.9
20260506123016 60 229 5.0 11.0 0.00 0.00 0.00 80 1011.0
20260506121512 58 196 4.0 13.0 0.00 0.00 0.00 82 1011.2
20260506120012 57 159 7.0 16.0 0.00 0.00 0.00 83 1011.3
20260506114508 57 215 4.0 14.0 0.00 0.00 0.00 83 1011.4
20260506113006 57 189 5.0 14.0 0.00 0.00 0.00 84 1011.6
20260506111504 56 177 4.0 12.0 0.00 0.00 0.00 85 1011.8
20260506110002 56 167 7.0 20.0 0.00 0.00 0.00 85 1011.5
20260506104609 56 213 4.0 21.0 0.00 0.00 0.00 85 1011.3
20260506103105 56 197 5.0 15.0 0.00 0.00 0.00 85 1011.3
20260506101629 56 161 5.0 10.0 0.00 0.00 0.00 86 1011.2
20260506100058 56 206 7.0 14.0 0.00 0.00 0.00 86 1011.1
20260506094558 55 183 6.0 18.0 0.00 0.00 0.00 86 1010.9
20260506093057 55 215 5.0 13.0 0.00 0.00 0.00 86 1011.1
20260506091550 55 164 3.0 10.0 0.00 0.00 0.00 87 1011.2
20260506090100 55 184 5.0 12.0 0.00 0.00 0.00 87 1011.3
20260506084552 55 222 3.0 11.0 0.00 0.00 0.00 87 1011.5
20260506083045 55 194 3.0 11.0 0.00 0.00 0.00 86 1011.6
20260506081547 55 205 3.0 9.0 0.00 0.00 0.00 86 1011.7
20260506073040 55 190 3.0 15.0 0.00 0.00 0.00 85 1011.6
20260506071539 55 216 5.0 11.0 0.00 0.00 0.00 85 1011.4
20260506061535 55 173 2.0 8.0 0.00 0.00 0.00 84 1011.5
20260506044523 55 135 6.0 14.0 0.00 0.00 0.00 83 1012.1
20260506043022 56 171 3.0 10.0 0.00 0.00 0.00 83 1012.1
20260506041534 56 178 4.0 14.0 0.00 0.00 0.00 83 1012.1
20260506040018 55 196 6.0 12.0 0.00 0.00 0.00 83 1012.1
20260506034525 56 194 4.0 10.0 0.00 0.00 0.00 82 1012.1
20260506033017 55 148 4.0 10.0 0.00 0.00 0.00 82 1011.9
20260506031516 55 210 4.0 14.0 0.00 0.00 0.00 81 1012.0
20260506030015 56 204 4.0 12.0 0.00 0.00 0.00 80 1011.8
20260506024514 56 159 4.0 10.0 0.00 0.00 0.00 79 1011.7
20260506023013 56 217 5.0 15.0 0.00 0.00 0.00 78 1011.7
20260506021513 56 155 4.0 10.0 0.00 0.00 0.00 78 1011.8
20260506020013 56 241 5.0 13.0 0.00 0.00 0.00 77 1011.7
20260506014510 56 194 4.0 10.0 0.00 0.00 0.00 78 1011.7
20260506013026 56 148 3.0 9.0 0.00 0.00 0.00 78 1011.7
20260506011521 55 189 2.0 8.0 0.00 0.00 0.00 79 1011.5
20260506010009 55 197 2.0 12.0 0.00 0.00 0.00 79 1011.4
20260506004507 55 157 3.0 12.0 0.00 0.00 0.00 79 1011.3
20260506003007 56 209 3.0 11.0 0.00 0.00 0.00 79 1011.1
20260506001506 56 176 4.0 15.0 0.00 0.00 0.00 79 1010.7
20260506000004 56 208 4.0 9.0 0.00 0.00 0.00 78 1010.4
20260505234504 56 229 4.0 12.0 0.00 0.00 0.00 78 1010.1
20260505233003 56 170 4.0 18.0 0.00 0.00 0.00 78 1009.9
20260505231503 57 159 4.0 17.0 0.00 0.00 0.00 77 1009.7
20260505230004 57 223 5.0 13.0 0.00 0.00 0.00 77 1009.8
20260505224504 57 210 5.0 14.0 0.00 0.00 0.00 77 1009.7
20260505223001 57 163 8.0 16.0 0.00 0.00 0.00 76 1009.4
20260505221604 58 185 5.0 20.0 0.00 0.00 0.00 76 1009.4
20260505220104 58 194 7.0 16.0 0.00 0.00 0.00 75 1009.2
20260505214610 59 188 5.0 16.0 0.00 0.00 0.00 75 1009.4
20260505213059 59 244 5.0 16.0 0.00 0.00 0.00 74 1009.4
20260505211604 60 220 5.0 12.0 0.00 0.00 0.00 74 1009.2